Regional Weather Roundup
Issued by NWS

Home | Current Version | Previous Version | Text Only | Print | Product List | Glossary On
Versions: 1 2 3 4 5 6 7 8 9 10 11 12 13 14 15 16 17 18 19 20 21 22 23 24 25 26 27 28 29 30 31 32 33 34 35 36 37 38 39 40 41 42 43 44 45 46 47 48 49 50
483
ASUS45 KABQ 052110
RWRNM
NEW MEXICO REGIONAL WEATHER ROUNDUP
NATIONAL WEATHER SERVICE ALBUQUERQUE NM
200 PM MST MON DEC 05 2016

NOTE: "FAIR" MEANS FEW OR NO CLOUDS BELOW 12,000 FEET AGL WITH NO
       SIGNIFICANT WEATHER OR OBSTRUCTIONS TO VISION.

      THIS PRODUCT IS RELEASED AS TWO VERSIONS.  ONE VERSION NEAR
      THE TOP OF THE HOUR CONTAINING PRELIMINARY DATA FROM ALBUQUERQUE
      AND OTHER STATIONS.  A FINAL VERSION WITH ADDITIONAL DATA IS
      ISSUED ABOUT 10 MINUTES AFTER THE HOUR.

NMZ501-503-504-510>518-052200-
NORTHWEST PLATEAU/NORTHCENTRAL MOUNTAINS

CITY           SKY/WX    TMP DP  RH WIND       PRES   REMARKS
FARMINGTON     FAIR      48  17  29 W15G21    29.82F
LOS ALAMOS     FAIR      44  14  29 E6        29.80S
SANTA FE       FAIR      51  15  23 W12       29.76F
TAOS           FAIR      46  19  34 SW10      29.78F
ANGEL FIRE     FAIR      41  16  36 SW22G35   29.78S

$$
NMZ402-403-502-505>509-052200-
WESTCENTRAL MOUNTAINS/SOUTHWEST MOUNTAINS

CITY           SKY/WX    TMP DP  RH WIND       PRES   REMARKS
GALLUP         FAIR      52  19  27 SW15G23   29.87F
GRANTS         FAIR      52  17  25 W16G23    29.87R

$$
NMZ407-409-411-412-052200-
SOUTHERN DESERTS

CITY           SKY/WX    TMP DP  RH WIND       PRES   REMARKS
DEMING         FAIR      61  25  25 W21G30    29.86F
LAS CRUCES     FAIR      60  23  24 W26G35    29.84F
HOLLOMAN AFB   FAIR      57  24  27 S8        29.85F
T OR C         FAIR      57  21  24 S9        29.80F

$$
NMZ519>523-052200-
CENTRAL VALLEYS/CENTRAL HIGHLANDS

CITY           SKY/WX    TMP DP  RH WIND       PRES   REMARKS
ALBUQUERQUE    FAIR      51  16  24 S5        29.79F
DOUBLE EAGLE   MOSUNNY   50  19  29 SE9       29.80F
MORIARTY ARPT  FAIR      55  11  17 W22G30    29.77F
CLINES CORNERS FAIR      51  13  21 W37G44    29.73F
BELEN          FAIR      54  18  24 CALM      29.80F
SOCORRO        FAIR      56  17  22 S6        29.80F

$$
NMZ524>526-539-540-052200-
SOUTHCENTRAL MOUNTAINS

CITY           SKY/WX    TMP DP  RH WIND       PRES   REMARKS
RUIDOSO        FAIR      55  12  18 W13G23    29.82F

$$
NMZ527>531-052200-
NORTHEAST HIGHLANDS/NORTHEAST PLAINS

CITY           SKY/WX    TMP DP  RH WIND       PRES   REMARKS
LAS VEGAS      FAIR      58  10  15 NW17G36   29.67F
RATON          FAIR      60   8  12 W18G30    29.62S
CLAYTON        FAIR      69  19  15 N15G26    29.55S

$$
NMZ532>537-052200-
EASTCENTRAL PLAINS

CITY           SKY/WX    TMP DP  RH WIND       PRES   REMARKS
TUCUMCARI      FAIR      70  16  12 W17       29.56F
CANNON AFB     FAIR      65  24  21 NW13      29.62F
CLOVIS AIRPORT FAIR      66  25  20 W23       29.61F

$$
NMZ028-029-538-052200-
SOUTHEAST PLAINS

CITY           SKY/WX    TMP DP  RH WIND       PRES   REMARKS
ROSWELL        FAIR      60  36  40 SE7       29.69F
ARTESIA        FAIR      61  39  44 S10       29.70F
CARLSBAD       FAIR      62  37  39 S7        29.70F
HOBBS          SUNNY     59  30  33 SW13      29.71F


$$




USA.gov is the U.S. government's official web portal to all federal, state and local government web resources and services.